This demonstration page uses our WeatherBlox Daily Observations layout. Learn more.

Left ArrowRight Arrow

Hourly Observations for July 7, 2018

Temp ( °F °C ) Dew Point ( °F °C ) Humidity (%) Winds ( mph kmh ) Pressure ( in mb ) Visibility ( mi km ) Precip ( " mm )
12:53 am 00:53 Clear 73 22.8 34 1.1 24 24 SW 12 19 29.88 1012 10 16 0.00 0.00
1:53 am 01:53 Clear 74 23.3 36 2.2 25 25 SW 12 19 29.96 1015 10 16 0.00 0.00
2:53 am 02:53 Clear 65 18.3 42 5.6 43 43 WSW 8 13 29.89 1012 10 16 0.00 0.00
3:53 am 03:53 Clear 64 17.8 44 6.7 48 48 WSW 9 15 29.90 1012 10 16 0.00 0.00
4:53 am 04:53 Clear 63 17.2 44 6.7 50 50 WSW 8 13 29.89 1012 10 16 0.00 0.00
5:53 am 05:53 Sunny 64 17.8 44 6.7 48 48 SW 9 15 29.90 1012 10 16 0.00 0.00
6:53 am 06:53 Mostly Sunny 66 18.9 46 7.8 49 49 SW 10 17 29.92 1013 10 16 0.00 0.00
7:53 am 07:53 Mostly Sunny 67 19.4 47 8.3 49 49 SSW 16 26 29.94 1014 10 16 0.00 0.00
8:53 am 08:53 Sunny 73 22.8 48 8.9 41 41 SW 13 20 29.95 1014 10 16 0.00 0.00
9:53 am 09:53 Sunny 78 25.6 46 7.8 32 32 SSW 12 19 29.97 1015 10 16 0.00 0.00
10:53 am 10:53 Sunny 80 26.7 48 8.9 33 33 S 8 13 29.94 1014 10 16 0.00 0.00
11:53 am 11:53 Sunny 84 28.9 44 6.7 25 25 SW 12 19 29.92 1013 10 16 0.00 0.00
12:53 pm 12:53 Sunny 86 30 43 6.1 22 22 undefined N/A 29.90 1013 10 16 0.00 0.00
1:53 pm 13:53 Sunny 89 31.7 41 5 19 19 SW 12 19 29.88 1012 10 16 0.00 0.00
2:53 pm 14:53 Mostly Cloudy 89 31.7 43 6.1 20 20 WSW 12 19 29.88 1012 10 16 0.00 0.00
3:08 pm 15:08 Partly Cloudy 90 32 43 6 20 20 SW 12 19 29.74 1007 10 16 0.00 0.00
3:53 pm 15:53 Mostly Sunny 91 32.8 40 4.4 17 17 W 15 24 29.85 1011 10 16 0.00 0.00
4:53 pm 16:53 Partly Cloudy 91 32.8 35 1.7 14 14 WSW 21 33 29.85 1011 10 16 0.00 0.00
5:53 pm 17:53 Sunny 91 32.8 38 3.3 15 15 W 20 31 29.84 1011 10 16 0.00 0.00
6:53 pm 18:53 Sunny 88 31.1 37 2.8 16 16 WNW 21 33 29.85 1011 10 16 0.00 0.00
7:53 pm 19:53 Sunny 85 29.4 35 1.7 17 17 NW 16 26 29.87 1011 10 16 0.00 0.00
8:53 pm 20:53 Sunny 78 25.6 37 2.8 23 23 WNW 7 11 29.88 1012 10 16 0.00 0.00
9:53 pm 21:53 Clear 67 19.4 40 4.4 37 37 Calm 29.93 1014 10 16 0.00 0.00
10:53 pm 22:53 Clear 63 17.2 43 6.1 48 48 S 5 7 29.96 1015 10 16 0.00 0.00
11:53 pm 23:53 Clear 62 16.7 42 5.6 48 48 Calm 29.96 1015 10 16 0.00 0.00

Powered by AerisWeather